Thief River Falls, MN

7:20 AM CDT on October 17, 2017 (GMT -0500)
Thief River Falls Regional

Weather History for KTVF - November, 2012

Change the Weather History Date:

Monday, November 12, 2012

  Actual Average Record
Temperature  
Mean Temperature 16 °F -  
Max Temperature 21 °F 33 °F 55 °F (1981)
Min Temperature 10 °F 20 °F -7 °F (1986)
Degree Days  
Heating Degree Days 48    
Moisture  
Dew Point 15 °F    
Average Humidity 91    
Maximum Humidity 100    
Minimum Humidity 79    
Precipitation  
Precipitation 0.00 in - - ()
Sea Level Pressure  
Sea Level Pressure 29.97 in    
Wind  
Wind Speed 9 mph (West)    
Max Wind Speed 15 mph    
Max Gust Speed 21 mph    
Visibility 8 miles    
Events      
Averages and records for this station are not official NWS values.
T = Trace of Precipitation, MM = Missing Value Source: NWS Daily Summary

Daily Weather History Graph

Daily Weather History Graph

Search for Another Location

Airport or City:

Trip Planner

Search our weather history database for the weather conditions in past years. The results will help you decide how hot, cold, wet, or windy it might be!

Date:

Astronomy

Nov. 12, 2012 Rise Set
Actual Time 7:27 AM CST 4:49 PM CST
Civil Twilight 6:53 AM CST 5:23 PM CST
Nautical Twilight 6:16 AM CST 6:00 PM CST
Astronomical Twilight 5:39 AM CST 6:37 PM CST
Moon 5:50 AM CST (11/12) 3:57 PM CST (11/12)
Length of Visible Light 10h 29m
Length of Day
9h 22m
Waning Crescent, 2% of the Moon is Illuminated
Nov 12
Waning Crescent
Nov 13
New
Nov 20
First Quarter
Nov 28
Full
Dec 6
Last Quarter

Hourly Weather History & Observations

Time (CST) Temp. Windchill Dew Point Humidity Pressure Visibility Wind Dir Wind Speed Gust Speed Precip Events Conditions
1:15 AM 15.8 °F 6.1 °F 14.0 °F 93% 29.76 in 8.0 mi WSW 6.9 mph - N/A   Overcast
1:35 AM 17.6 °F 8.2 °F 15.8 °F 93% 29.76 in 9.0 mi WSW 6.9 mph - N/A   Overcast
1:55 AM 17.6 °F 8.2 °F 15.8 °F 93% 29.77 in 10.0 mi WSW 6.9 mph - N/A   Overcast
2:15 AM 17.6 °F 8.2 °F 15.8 °F 93% 29.77 in 8.0 mi WSW 6.9 mph - N/A   Overcast
2:35 AM 17.6 °F 7.3 °F 15.8 °F 93% 29.77 in 10.0 mi WSW 8.1 mph - N/A   Overcast
2:55 AM 17.6 °F 8.2 °F 15.8 °F 93% 29.78 in 10.0 mi WSW 6.9 mph - N/A   Overcast
3:15 AM 17.6 °F 7.3 °F 14.0 °F 86% 29.78 in 8.0 mi WSW 8.1 mph - N/A   Overcast
3:35 AM 17.6 °F 7.3 °F 15.8 °F 93% 29.78 in 9.0 mi WSW 8.1 mph - N/A   Overcast
3:55 AM 17.6 °F 8.2 °F 17.6 °F 100% 29.78 in 2.5 mi WSW 6.9 mph - N/A   Overcast
4:15 AM 17.6 °F 7.3 °F 17.6 °F 100% 29.79 in 2.0 mi WSW 8.1 mph - N/A   Overcast
4:35 AM 17.6 °F 6.4 °F 15.8 °F 93% 29.79 in 5.0 mi West 9.2 mph - N/A   Overcast
4:55 AM 19.4 °F 7.9 °F 14.0 °F 80% 29.80 in 5.0 mi West 10.4 mph - N/A   Overcast
5:15 AM 17.6 °F 6.4 °F 12.2 °F 79% 29.80 in 5.0 mi West 9.2 mph - N/A   Overcast
5:35 AM 17.6 °F 5.7 °F 15.8 °F 93% 29.81 in 8.0 mi West 10.4 mph - N/A   Overcast
5:55 AM 17.6 °F 5.7 °F 15.8 °F 93% 29.82 in 8.0 mi West 10.4 mph - N/A   Overcast
6:15 AM 17.6 °F 5.7 °F 15.8 °F 93% 29.82 in 5.0 mi West 10.4 mph - N/A   Overcast
6:35 AM 17.6 °F 5.7 °F 15.8 °F 93% 29.83 in 3.0 mi West 10.4 mph - N/A   Overcast
6:55 AM 17.6 °F 6.4 °F 17.6 °F 100% 29.84 in 4.0 mi West 9.2 mph - N/A   Overcast
7:15 AM 17.6 °F 5.7 °F 15.8 °F 93% 29.85 in 5.0 mi WNW 10.4 mph - N/A   Overcast
7:35 AM 17.6 °F 5.7 °F 14.0 °F 86% 29.86 in 3.0 mi WNW 10.4 mph - N/A   Overcast
7:55 AM 17.6 °F 5.7 °F 14.0 °F 86% 29.87 in 3.0 mi WNW 10.4 mph - N/A   Overcast
8:15 AM 17.6 °F 5.7 °F 15.8 °F 93% 29.88 in 2.5 mi West 10.4 mph - N/A   Overcast
8:35 AM 17.6 °F 4.3 °F 14.0 °F 86% 29.89 in 3.0 mi WNW 12.7 mph 17.3 mph N/A   Overcast
8:55 AM 17.6 °F 5.0 °F 12.2 °F 79% 29.90 in 5.0 mi WNW 11.5 mph - N/A   Overcast
9:15 AM 17.6 °F 5.7 °F 15.8 °F 93% 29.91 in 5.0 mi WNW 10.4 mph - N/A   Overcast
9:55 AM 17.6 °F 5.0 °F 17.6 °F 100% 29.93 in 4.0 mi WNW 11.5 mph - N/A   Overcast
10:15 AM 17.6 °F 5.0 °F 17.6 °F 100% 29.94 in 8.0 mi West 11.5 mph - N/A   Overcast
10:35 AM 19.4 °F 7.2 °F 17.6 °F 93% 29.95 in 5.0 mi West 11.5 mph - N/A   Overcast
10:55 AM 19.4 °F 6.6 °F 15.8 °F 86% 29.95 in 3.0 mi WNW 12.7 mph 16.1 mph N/A   Overcast
11:15 AM 19.4 °F 7.9 °F 15.8 °F 86% 29.96 in 3.0 mi WNW 10.4 mph - N/A   Overcast
11:35 AM 19.4 °F 6.6 °F 17.6 °F 93% 29.96 in 9.0 mi WNW 12.7 mph - N/A   Overcast
11:55 AM 19.4 °F 7.2 °F 17.6 °F 93% 29.97 in 9.0 mi WNW 11.5 mph 20.7 mph N/A   Overcast
12:15 PM 19.4 °F 6.6 °F 17.6 °F 93% 29.97 in 5.0 mi WNW 12.7 mph - N/A   Overcast
12:35 PM 19.4 °F 7.2 °F 17.6 °F 93% 29.98 in 5.0 mi WNW 11.5 mph 19.6 mph N/A   Overcast
12:55 PM 19.4 °F 7.9 °F 17.6 °F 93% 29.99 in 5.0 mi WNW 10.4 mph - N/A   Overcast
1:15 PM 21.2 °F 8.9 °F 17.6 °F 86% 29.99 in 5.0 mi WNW 12.7 mph - N/A   Overcast
1:35 PM 21.2 °F 8.3 °F 17.6 °F 86% 30.00 in 5.0 mi WNW 13.8 mph - N/A   Overcast
1:55 PM 21.2 °F 9.5 °F 17.6 °F 86% 30.00 in 10.0 mi NW 11.5 mph - N/A   Overcast
2:15 PM 21.2 °F 7.8 °F 19.4 °F 93% 30.01 in 10.0 mi WNW 15.0 mph 18.4 mph N/A   Overcast
2:35 PM 19.4 °F 6.6 °F 15.8 °F 86% 30.02 in 10.0 mi WNW 12.7 mph - N/A   Overcast
2:55 PM 19.4 °F 6.6 °F 17.6 °F 93% 30.03 in 10.0 mi WNW 12.7 mph - N/A   Overcast
3:15 PM 19.4 °F 7.9 °F 17.6 °F 93% 30.04 in 10.0 mi WNW 10.4 mph - N/A   Overcast
3:35 PM 19.4 °F 7.9 °F 17.6 °F 93% 30.05 in 8.0 mi West 10.4 mph - N/A   Overcast
3:55 PM 19.4 °F 7.9 °F 15.8 °F 86% 30.06 in 10.0 mi WNW 10.4 mph - N/A   Overcast
4:35 PM 19.4 °F 8.6 °F 19.4 °F 100% 30.08 in 9.0 mi West 9.2 mph - N/A   Overcast
4:55 PM 19.4 °F 7.9 °F 17.6 °F 93% 30.09 in 10.0 mi West 10.4 mph - N/A   Overcast
5:15 PM 19.4 °F 7.9 °F 17.6 °F 93% 30.10 in 10.0 mi West 10.4 mph - N/A   Overcast
5:35 PM 19.4 °F 9.5 °F 17.6 °F 93% 30.10 in 10.0 mi West 8.1 mph - N/A   Overcast
5:55 PM 19.4 °F 9.5 °F 19.4 °F 100% 30.11 in 10.0 mi West 8.1 mph - N/A   Overcast
6:15 PM 19.4 °F 8.6 °F 17.6 °F 93% 30.12 in 10.0 mi West 9.2 mph - N/A   Overcast
6:35 PM 19.4 °F 9.5 °F 15.8 °F 86% 30.12 in 10.0 mi West 8.1 mph - N/A   Overcast
6:55 PM 17.6 °F 7.3 °F 15.8 °F 93% 30.13 in 10.0 mi West 8.1 mph - N/A   Overcast
7:15 PM 15.8 °F 6.1 °F 12.2 °F 86% 30.13 in 10.0 mi WSW 6.9 mph - N/A   Scattered Clouds
7:35 PM 15.8 °F 6.1 °F 12.2 °F 86% 30.13 in 10.0 mi WSW 6.9 mph - N/A   Clear
7:55 PM 15.8 °F 7.2 °F 12.2 °F 86% 30.13 in 10.0 mi SW 5.8 mph - N/A   Clear
8:15 PM 15.8 °F 7.2 °F 12.2 °F 86% 30.13 in 10.0 mi SW 5.8 mph - N/A   Clear
8:35 PM 15.8 °F 8.6 °F 12.2 °F 86% 30.14 in 10.0 mi SW 4.6 mph - N/A   Partly Cloudy
8:55 PM 12.2 °F 2.9 °F 10.4 °F 92% 30.14 in 10.0 mi SSW 5.8 mph - N/A   Clear
9:15 PM 12.2 °F 2.9 °F 10.4 °F 92% 30.14 in 10.0 mi South 5.8 mph - N/A   Mostly Cloudy
9:35 PM 14.0 °F 5.1 °F 14.0 °F 100% 30.14 in 10.0 mi South 5.8 mph - N/A   Overcast
9:55 PM 15.8 °F 5.1 °F 14.0 °F 93% 30.15 in 10.0 mi SSW 8.1 mph - N/A   Overcast
10:15 PM 14.0 °F 3.9 °F 12.2 °F 93% 30.15 in 10.0 mi SSW 6.9 mph - N/A   Overcast
10:35 PM 14.0 °F 3.9 °F 10.4 °F 86% 30.15 in 10.0 mi SSW 6.9 mph - N/A   Overcast
10:55 PM 12.2 °F 1.7 °F 10.4 °F 92% 30.15 in 10.0 mi SSW 6.9 mph - N/A   Scattered Clouds
11:15 PM 12.2 °F 0.7 °F 10.4 °F 92% 30.16 in 10.0 mi SSW 8.1 mph - N/A   Clear
11:35 PM 12.2 °F 2.9 °F 8.6 °F 85% 30.16 in 10.0 mi South 5.8 mph - N/A   Clear
11:55 PM 10.4 °F -0.4 °F 8.6 °F 92% 30.16 in 10.0 mi South 6.9 mph - N/A   Clear